22.05.2024;07:00;6
22.05.2024;06:00;6
22.05.2024;05:00;7
22.05.2024;04:00;7
22.05.2024;03:00;5
22.05.2024;02:00;3
22.05.2024;01:00;2
21.05.2024;24:00;2
21.05.2024;23:00;2
21.05.2024;22:00;2
21.05.2024;21:00;2
21.05.2024;20:00;2
21.05.2024;19:00;2
21.05.2024;18:00;1
21.05.2024;17:00;1
21.05.2024;16:00;1
21.05.2024;15:00;2
21.05.2024;14:00;2
21.05.2024;13:00;1
21.05.2024;12:00;1
21.05.2024;11:00;1
21.05.2024;10:00;3
21.05.2024;09:00;7
21.05.2024;08:00;7
21.05.2024;07:00;5
21.05.2024;06:00;5
21.05.2024;05:00;5
21.05.2024;04:00;6
21.05.2024;03:00;5
21.05.2024;02:00;4
21.05.2024;01:00;4
20.05.2024;24:00;5
20.05.2024;23:00;5
20.05.2024;22:00;7
20.05.2024;21:00;12
20.05.2024;20:00;12
20.05.2024;19:00;13
20.05.2024;18:00;17
20.05.2024;17:00;16
20.05.2024;16:00;15
20.05.2024;15:00;17
20.05.2024;14:00;13
20.05.2024;13:00;13
20.05.2024;12:00;12
20.05.2024;11:00;12
20.05.2024;10:00;8
20.05.2024;09:00;4
20.05.2024;08:00;3
20.05.2024;07:00;3
20.05.2024;06:00;3
20.05.2024;05:00;3
20.05.2024;04:00;2
20.05.2024;03:00;2
20.05.2024;02:00;2
20.05.2024;01:00;3
19.05.2024;24:00;4
19.05.2024;23:00;5
19.05.2024;22:00;8
19.05.2024;21:00;9
19.05.2024;20:00;14
19.05.2024;19:00;14
19.05.2024;18:00;14
19.05.2024;17:00;10
19.05.2024;16:00;9
19.05.2024;15:00;8
19.05.2024;14:00;8
19.05.2024;13:00;6
19.05.2024;12:00;3
19.05.2024;11:00;2
19.05.2024;10:00;2
19.05.2024;09:00;1
19.05.2024;08:00;2
19.05.2024;07:00;2
19.05.2024;06:00;2
19.05.2024;05:00;2
19.05.2024;04:00;2
19.05.2024;03:00;2
19.05.2024;02:00;2
19.05.2024;01:00;2
18.05.2024;24:00;2
18.05.2024;23:00;5
18.05.2024;22:00;11
18.05.2024;21:00;13
18.05.2024;20:00;14
18.05.2024;19:00;17
18.05.2024;18:00;17
18.05.2024;17:00;20
18.05.2024;16:00;14
18.05.2024;15:00;14
18.05.2024;14:00;12
18.05.2024;13:00;10
18.05.2024;12:00;7
18.05.2024;11:00;6
18.05.2024;10:00;5
18.05.2024;09:00;4
18.05.2024;08:00;3
18.05.2024;07:00;2
18.05.2024;06:00;2
18.05.2024;05:00;2
18.05.2024;04:00;3
18.05.2024;03:00;2
18.05.2024;02:00;4
18.05.2024;01:00;5
17.05.2024;24:00;6
17.05.2024;23:00;7
17.05.2024;22:00;7
17.05.2024;21:00;8
17.05.2024;20:00;8
17.05.2024;19:00;7
17.05.2024;18:00;6
17.05.2024;17:00;5
17.05.2024;16:00;3
17.05.2024;15:00;2
17.05.2024;14:00;1
17.05.2024;13:00;1
17.05.2024;12:00;1
17.05.2024;11:00;1
17.05.2024;10:00;1
17.05.2024;09:00;1
17.05.2024;08:00;1
17.05.2024;07:00;1
17.05.2024;06:00;1
17.05.2024;05:00;1
17.05.2024;04:00;1
17.05.2024;03:00;2
17.05.2024;02:00;3
17.05.2024;01:00;2
